Simultaneous Nadir Overpasses (SNOs) Predictions

Prediction of SNOs between METOP-C and LANDSAT-8 Satellite Orbit:

Table of predicted SNOs for the next 14.0 days since TLE Epoch: 5/11/2024
Index Date (METOP-C) Time (METOP-C) Lat,Lon (METOP-C) SZA (METOP-C ) Date (LANDSAT-8) Time (LANDSAT-8) Lat,Lon (LANDSAT-8) SZA (LANDSAT-8 ) Distance(km) Time Diff (sec)
1 05/11/2024 09:08:47 -81.03, -99.35 114.98 05/11/2024 09:09:37 -81.04, -99.42 114.96 1.11 50
2 05/11/2024 09:59:28 81.04, 68.16 65.04 05/11/2024 09:59:03 81.04, 68.31 65.05 2.73 25
3 05/14/2024 04:43:09 -81.04, -32.91 115.66 05/14/2024 04:43:48 -81.04, -32.92 115.65 0.61 39
4 05/14/2024 05:33:48 81.07, 135.33 64.45 05/14/2024 05:33:13 81.07, 135.13 64.42 3.34 35
5 05/17/2024 00:17:31 -81.03, 33.30 116.34 05/17/2024 00:17:58 -81.03, 33.41 116.31 2.00 27
6 05/17/2024 01:08:10 81.06,-158.50 63.77 05/17/2024 01:07:23 81.06,-158.57 63.74 1.21 47
7 05/19/2024 19:51:50 -81.04, 99.99 116.91 05/19/2024 19:52:05 -81.04, 99.93 116.91 1.10 15
8 05/19/2024 20:42:30 81.06, -92.21 63.15 05/19/2024 20:41:30 81.06, -92.08 63.14 2.33 60
9 05/22/2024 14:35:48 80.71, -7.48 61.64 05/22/2024 14:37:02 80.55, -7.10 61.58 18.87 74
10 05/22/2024 15:26:10 -81.04, 166.44 117.47 05/22/2024 15:26:12 -81.03, 166.28 117.50 2.91 2



Historial Predications of SNOs between METOP-C and LANDSAT-8
